7 * 24
多渠道服务支持
STARLINK-37009(NORAD编号68208)是美国SpaceX公司星链(Starlink)星座的成员卫星,属于低轨互联网通信卫星。星链项目计划部署约4.2万颗低轨卫星,旨在为全球提供高速低延迟卫星互联网服务,重点覆盖地面基础设施难以到达的偏远地区、海洋和航空场景。该卫星运行在近地轨道,使用Ku、Ka频段提供通信服务,是星链大规模组网中已部署的卫星之一,和其他星链卫星共同为用户提供宽带接入服务,推动全球互联网覆盖的同时,也引发了对太空拥堵和天文观测影响的相关讨论。
美国
(US)
| 数据来源 | 国际轨道数据 |
| 星历时间: | 2026-09-11T23:47:55+0800 12小时前 查看轨道信息 |
| 半长轴: | 6843.678km |
| 偏心率: | 0.0001767 |
| 轨道倾角: | 97.285° |
| 近地点辐角 | 93.957° |
| 升交点赤经 | 128.488° |
| 平近点角 | 266.187° |
| 近地点: | 464.331km |
| 远地点: | 466.751km |
| 周期: | 93.906分钟 |
| 每日圈数: | 15.33446 |